"startDT [UTC]","vpos","CH4 [ppm]","stdev(CH4) [ppm]","CO2 [ppm]","stdev(CO2) [ppm]","H2O_reported [%]","stdev(H2O_reported)","CavityPressure [torr]","CavityTemp [C]","OutletValve","CH4_dry [ppm]","CO2_dry [ppm]","DasTemp [C]","EtalonTemp [C]","WarmBoxTemp [C]","MPVPosition","T_ECpre [C]","T_EC1 [C]","T_EC2 [C]","p_inlet [hPa]","p_in [hPa]","p_out [hPa]","T_inlet [C]","RH_inlet [%]","dwpt_inlet [C]","T_vent [C]","RH_vent [%]","dwpt_vent [C]","flow_vent [l min-1]","flow_inlet [l min-1]","dwpt_sample [C]","T_room [C]"
2015-06-27 00:00:00,0.0,1.88574,0.00039,396.807,0.060,0.7135,0.0042,140.000,45.000,34105.78257,1.89927,400.290,32.690,45.068,45.000,0.00,0.10,-272.72,-272.77,-6,982,-4,22.7,19.7,-1.6,22.4,20.2,-1.5,5.73,1.90,-1.0,26.8
2015-06-27 00:01:00,0.0,1.88570,0.00040,396.718,0.073,0.7272,0.0046,139.997,45.000,34105.81342,1.89953,400.267,32.694,45.068,45.000,0.00,0.10,-272.73,-272.79,-6,982,-4,22.7,20.2,-1.3,22.4,20.6,-1.2,5.73,1.91,-1.0,26.8
2015-06-27 00:02:00,0.0,1.88538,0.00036,396.760,0.042,0.7335,0.0076,139.997,45.000,34104.98194,1.89932,400.342,32.709,45.068,45.000,0.00,0.10,-272.72,-272.79,-6,982,-4,22.7,20.3,-1.3,22.4,20.9,-1.1,5.73,1.90,-1.0,26.9
2015-06-27 00:03:00,0.0,1.88557,0.00046,396.843,0.042,0.7162,0.0030,139.998,45.000,34104.76209,1.89910,400.338,32.700,45.068,45.000,0.00,0.10,-272.71,-272.78,-6,982,-4,22.7,19.8,-1.6,22.4,20.4,-1.4,5.73,1.91,-1.0,26.9
2015-06-27 00:04:00,0.0,1.88591,0.00038,396.839,0.057,0.7118,0.0035,140.001,45.000,34107.14217,1.89944,400.314,32.694,45.068,45.000,0.00,0.10,-272.72,-272.78,-6,982,-4,22.7,19.7,-1.7,22.4,20.3,-1.5,5.73,1.91,-1.0,26.9
2015-06-27 00:05:00,0.0,1.88558,0.00034,396.755,0.089,0.7227,0.0038,140.000,45.000,34107.55618,1.89931,400.284,32.688,45.068,45.000,0.00,0.10,-272.73,-272.79,-6,982,-4,22.7,20.0,-1.4,22.4,20.5,-1.3,5.73,1.91,-1.0,26.9
2015-06-27 00:06:00,0.0,1.88510,0.00045,396.600,0.049,0.7392,0.0042,140.004,45.000,34108.39516,1.89919,400.205,32.688,45.068,45.000,0.00,0.10,-272.72,-272.78,-6,982,-4,22.7,20.5,-1.1,22.4,20.9,-1.0,5.73,1.91,-1.0,26.9
2015-06-27 00:07:00,0.0,1.88521,0.00035,396.710,0.076,0.7360,0.0079,140.003,45.000,34104.37112,1.89915,400.303,32.678,45.068,45.000,0.00,0.10,-272.72,-272.78,-6,982,-4,22.7,20.3,-1.2,22.4,21.0,-1.0,5.73,1.90,-1.0,26.8
2015-06-27 00:08:00,0.0,1.88524,0.00047,396.712,0.074,0.7276,0.0030,139.998,45.000,34105.66872,1.89904,400.268,32.668,45.068,45.000,0.00,0.10,-272.73,-272.79,-6,982,-4,22.7,20.2,-1.3,22.4,20.7,-1.2,5.73,1.91,-1.0,26.8
2015-06-27 00:09:00,0.0,1.88496,0.00040,396.637,0.063,0.7411,0.0078,140.000,45.000,34104.70101,1.89906,400.249,32.676,45.068,45.000,0.00,0.10,-272.72,-272.78,-6,982,-4,22.7,20.5,-1.1,22.4,21.0,-1.0,5.73,1.90,-1.0,26.8
2015-06-27 00:10:00,0.0,1.88509,0.00053,396.755,0.077,0.7323,0.0061,140.003,45.000,34106.78016,1.89900,400.335,32.685,45.068,45.000,0.00,0.10,-272.72,-272.78,-6,982,-4,22.7,20.2,-1.3,22.4,20.9,-1.0,5.73,1.91,-1.0,26.8
2015-06-27 00:11:00,0.0,1.88511,0.00031,396.743,0.036,0.7269,0.0053,140.003,45.000,34105.25792,1.89890,400.291,32.687,45.068,45.000,0.00,0.10,-272.72,-272.78,-6,982,-4,22.7,20.1,-1.4,22.4,20.7,-1.2,5.73,1.91,-1.0,26.9
2015-06-27 00:12:00,0.0,1.88516,0.00037,396.588,0.065,0.7429,0.0089,140.002,45.000,34104.84423,1.89925,400.214,32.685,45.068,45.000,0.00,0.10,-272.72,-272.79,-6,982,-4,22.7,20.6,-1.0,22.4,21.0,-1.0,5.73,1.91,-1.0,26.8
2015-06-27 00:13:00,0.0,1.88483,0.00031,396.629,0.057,0.7528,0.0096,139.999,45.000,34103.10018,1.89915,400.308,32.686,45.068,45.000,0.00,0.10,-272.72,-272.78,-6,982,-4,22.7,20.8,-0.9,22.4,21.4,-0.7,5.73,1.91,-1.0,26.8
2015-06-27 00:14:00,0.0,1.88501,0.00067,396.668,0.086,0.7323,0.0049,140.005,45.000,34105.78019,1.89889,400.243,32.688,45.068,45.000,0.00,0.10,-272.72,-272.79,-6,982,-4,22.7,20.2,-1.3,22.4,20.9,-1.0,5.73,1.91,-1.0,26.8
2015-06-27 00:15:00,0.0,1.88523,0.00047,396.778,0.045,0.7233,0.0025,140.001,45.000,34104.19005,1.89896,400.305,32.688,45.068,45.000,0.00,0.10,-272.72,-272.79,-6,982,-4,22.7,20.0,-1.5,22.4,20.6,-1.2,5.73,1.91,-1.0,26.8
2015-06-27 00:16:00,0.0,1.88522,0.00032,396.761,0.081,0.7162,0.0037,139.998,45.000,34105.09064,1.89880,400.259,32.692,45.068,45.000,0.00,0.10,-272.71,-272.78,-6,982,-4,22.7,19.8,-1.6,22.4,20.4,-1.4,5.73,1.91,-1.0,26.9
2015-06-27 00:17:00,0.0,1.88460,0.00038,396.637,0.093,0.7317,0.0081,139.996,45.000,34103.93748,1.89850,400.204,32.690,45.068,45.000,0.00,0.10,-272.72,-272.78,-6,982,-4,22.7,20.3,-1.3,22.4,20.7,-1.2,5.73,1.90,-1.0,26.9
2015-06-27 00:18:00,0.0,1.88487,0.00045,396.782,0.078,0.7259,0.0116,140.005,45.000,34107.43883,1.89861,400.326,32.688,45.068,45.000,0.00,0.10,-272.73,-272.79,-6,982,-4,22.7,20.0,-1.5,22.4,20.7,-1.2,5.73,1.91,-1.0,26.9
2015-06-27 00:19:00,0.0,1.88511,0.00051,396.795,0.026,0.7151,0.0023,140.000,45.000,34106.05316,1.89871,400.287,32.699,45.068,45.000,0.00,0.10,-272.72,-272.78,-6,982,-4,22.7,19.8,-1.6,22.4,20.3,-1.4,5.73,1.91,-1.0,26.9
2015-06-27 00:20:00,0.0,1.88478,0.00046,396.862,0.058,0.7126,0.0058,140.002,45.000,34108.43365,1.89834,400.338,32.705,45.068,45.000,0.00,0.10,-272.72,-272.78,-6,982,-4,22.7,19.7,-1.7,22.4,20.3,-1.4,5.73,1.91,-1.0,26.9
2015-06-27 00:21:00,0.0,1.88473,0.00039,396.823,0.097,0.7030,0.0061,139.998,45.000,34110.58886,1.89802,400.258,32.700,45.068,45.000,0.00,0.10,-272.73,-272.79,-6,982,-4,22.7,19.5,-1.8,22.4,20.0,-1.6,5.73,1.91,-1.0,26.8
2015-06-27 00:22:00,0.0,1.88418,0.00046,396.635,0.076,0.7385,0.0090,140.001,45.000,34109.75079,1.89820,400.236,32.714,45.068,45.000,0.00,0.10,-272.72,-272.79,-6,982,-4,22.7,20.5,-1.1,22.4,20.8,-1.1,5.73,1.91,-1.0,26.9
2015-06-27 00:23:00,0.0,1.88460,0.00033,396.729,0.031,0.7213,0.0058,139.997,45.000,34108.31996,1.89829,400.250,32.704,45.068,45.000,0.00,0.10,-272.72,-272.77,-6,982,-4,22.7,20.0,-1.5,22.4,20.6,-1.2,5.73,1.91,-1.0,26.9
2015-06-27 00:24:00,0.0,1.88466,0.00035,396.700,0.070,0.7254,0.0017,139.999,45.000,34109.30402,1.89844,400.238,32.737,45.068,45.000,0.00,0.10,-272.72,-272.78,-6,982,-4,22.7,20.1,-1.4,22.4,20.6,-1.2,5.73,1.90,-0.9,26.9
2015-06-27 00:25:00,0.0,1.88420,0.00050,396.737,0.042,0.7254,0.0083,139.998,45.000,34111.06643,1.89791,400.280,32.746,45.068,45.000,0.00,0.10,-272.73,-272.78,-6,982,-4,22.7,20.0,-1.4,22.4,20.7,-1.2,5.73,1.91,-0.9,26.9
2015-06-27 00:26:00,0.0,1.88444,0.00054,396.822,0.046,0.7194,0.0033,140.000,45.000,34108.86861,1.89814,400.331,32.740,45.068,45.000,0.00,0.10,-272.72,-272.78,-6,982,-4,22.6,19.9,-1.6,22.4,20.4,-1.4,5.73,1.91,-0.9,26.9
2015-06-27 00:27:00,0.0,1.88452,0.00045,396.806,0.037,0.7150,0.0056,140.002,45.000,34107.23805,1.89804,400.297,32.748,45.068,45.000,0.00,0.10,-272.72,-272.78,-6,982,-4,22.7,19.8,-1.6,22.4,20.3,-1.4,5.73,1.91,-0.9,26.9
2015-06-27 00:28:00,0.0,1.88473,0.00065,396.759,0.031,0.7148,0.0048,140.000,45.000,34107.94793,1.89828,400.248,32.745,45.068,45.000,0.00,0.10,-272.72,-272.79,-6,982,-4,22.7,19.8,-1.6,22.4,20.4,-1.4,5.73,1.91,-1.0,26.8
2015-06-27 00:29:00,0.0,1.88421,0.00064,396.602,0.059,0.7301,0.0104,140.000,45.000,34108.50113,1.89813,400.164,32.713,45.068,45.000,0.00,0.10,-272.72,-272.79,-6,982,-4,22.7,20.3,-1.3,22.4,20.7,-1.2,5.73,1.91,-1.0,26.9
2015-06-27 00:30:00,0.0,1.88408,0.00040,396.626,0.041,0.7368,0.0077,139.997,45.000,34108.97717,1.89804,400.225,32.693,45.068,45.000,0.00,0.10,-272.71,-272.78,-6,982,-4,22.6,20.3,-1.2,22.4,21.0,-1.0,5.73,1.91,-0.9,26.9
2015-06-27 00:31:00,0.0,1.88363,0.00038,396.561,0.065,0.7389,0.0040,139.997,45.000,34109.46023,1.89763,400.167,32.703,45.068,45.000,0.00,0.10,-272.72,-272.78,-6,982,-4,22.7,20.4,-1.1,22.4,20.9,-1.0,5.73,1.90,-0.9,26.9
2015-06-27 00:32:00,0.0,1.88369,0.00048,396.671,0.053,0.7352,0.0087,140.002,45.000,34110.18233,1.89766,400.260,32.701,45.068,45.000,0.00,0.10,-272.73,-272.79,-6,982,-4,22.7,20.3,-1.2,22.4,21.0,-1.0,5.73,1.91,-1.0,26.9
2015-06-27 00:33:00,0.0,1.88397,0.00039,396.768,0.061,0.7104,0.0034,139.996,45.000,34110.36338,1.89744,400.239,32.692,45.068,45.000,0.00,0.10,-272.72,-272.78,-6,982,-4,22.7,19.6,-1.7,22.4,20.3,-1.4,5.73,1.91,-0.9,26.9
2015-06-27 00:34:00,0.0,1.88380,0.00032,396.710,0.040,0.7152,0.0054,140.005,45.000,34112.73230,1.89736,400.195,32.688,45.068,45.000,0.00,0.10,-272.72,-272.78,-6,982,-4,22.7,19.8,-1.6,22.4,20.2,-1.5,5.73,1.91,-0.9,26.9
2015-06-27 00:35:00,0.0,1.88366,0.00043,396.716,0.045,0.7162,0.0030,140.001,45.000,34111.29250,1.89723,400.213,32.682,45.068,45.000,0.00,0.10,-272.73,-272.78,-6,982,-4,22.7,19.8,-1.6,22.5,20.4,-1.3,5.73,1.91,-1.0,26.9
2015-06-27 00:36:00,0.0,1.88342,0.00047,396.674,0.038,0.7231,0.0026,140.001,45.000,34111.21113,1.89718,400.201,32.647,45.068,45.000,0.00,0.10,-272.72,-272.78,-6,982,-4,22.7,19.9,-1.5,22.4,20.5,-1.3,5.73,1.91,-1.0,26.8
2015-06-27 00:37:00,0.0,1.88364,0.00051,396.783,0.051,0.7142,0.0048,139.999,45.000,34109.48494,1.89716,400.267,32.635,45.069,45.000,0.00,0.10,-272.72,-272.77,-6,982,-4,22.7,19.7,-1.7,22.4,20.4,-1.4,5.73,1.91,-0.9,26.9
2015-06-27 00:38:00,0.0,1.88378,0.00045,396.807,0.037,0.7017,0.0032,140.003,45.000,34113.15382,1.89706,400.230,32.645,45.069,45.000,0.00,0.10,-272.73,-272.79,-6,982,-4,22.7,19.4,-1.9,22.4,20.0,-1.7,5.73,1.91,-1.0,26.9
2015-06-27 00:39:00,0.0,1.88349,0.00044,396.685,0.040,0.7207,0.0065,140.003,45.000,34110.22674,1.89717,400.203,32.669,45.069,45.000,0.00,0.10,-272.72,-272.79,-6,982,-4,22.7,19.9,-1.5,22.4,20.4,-1.4,5.73,1.91,-1.0,26.9
2015-06-27 00:40:00,0.0,1.88383,0.00037,396.708,0.045,0.7188,0.0030,140.004,45.000,34110.40212,1.89744,400.215,32.660,45.068,45.000,0.00,0.10,-272.71,-272.78,-6,982,-4,22.7,19.9,-1.5,22.5,20.5,-1.3,5.73,1.91,-1.0,26.9
2015-06-27 00:41:00,0.0,1.88341,0.00038,396.740,0.025,0.7173,0.0048,140.001,45.000,34110.82306,1.89700,400.242,32.639,45.068,45.000,0.00,0.10,-272.72,-272.78,-6,982,-4,22.7,19.8,-1.6,22.4,20.4,-1.4,5.73,1.91,-1.0,26.9
2015-06-27 00:42:00,0.0,1.88338,0.00030,396.730,0.048,0.7133,0.0018,139.995,45.000,34111.19362,1.89694,400.211,32.628,45.068,45.000,0.00,0.10,-272.72,-272.79,-6,982,-4,22.7,19.7,-1.7,22.4,20.3,-1.5,5.73,1.91,-1.0,26.9
2015-06-27 00:43:00,0.0,1.88351,0.00035,396.664,0.041,0.7177,0.0091,140.002,45.000,34112.56569,1.89708,400.163,32.657,45.068,45.000,0.00,0.10,-272.72,-272.78,-6,982,-4,22.7,19.9,-1.5,22.4,20.3,-1.4,5.73,1.91,-1.0,26.9
2015-06-27 00:44:00,0.0,1.88365,0.00068,396.664,0.057,0.7206,0.0040,140.000,45.000,34109.85199,1.89731,400.181,32.674,45.068,45.000,0.00,0.10,-272.72,-272.78,-6,982,-4,22.7,19.9,-1.5,22.4,20.5,-1.3,5.73,1.91,-1.0,26.9
2015-06-27 00:45:00,0.0,1.88366,0.00045,396.709,0.046,0.7152,0.0028,140.000,45.000,34111.61769,1.89722,400.200,32.676,45.068,45.000,0.00,0.10,-272.73,-272.79,-6,982,-4,22.7,19.8,-1.6,22.4,20.4,-1.4,5.73,1.91,-1.0,26.9
2015-06-27 00:46:00,0.0,1.88375,0.00033,396.694,0.041,0.7162,0.0065,140.000,45.000,34109.09530,1.89735,400.184,32.677,45.068,45.000,0.00,0.10,-272.72,-272.78,-6,982,-4,22.7,19.8,-1.6,22.5,20.3,-1.4,5.73,1.90,-1.0,26.9
2015-06-27 00:47:00,0.0,1.88336,0.00043,396.609,0.120,0.7267,0.0045,140.001,45.000,34112.35512,1.89713,400.161,32.674,45.068,45.000,0.00,0.10,-272.72,-272.78,-6,982,-4,22.7,20.1,-1.4,22.4,20.6,-1.2,5.73,1.91,-1.0,26.9
2015-06-27 00:48:00,0.0,1.88307,0.00028,396.449,0.106,0.7544,0.0089,140.000,45.000,34110.25266,1.89736,400.131,32.672,45.068,45.000,0.00,0.10,-272.72,-272.78,-6,982,-4,22.7,21.0,-0.8,22.5,21.3,-0.8,5.73,1.91,-1.0,26.9
2015-06-27 00:49:00,0.0,1.88261,0.00049,396.321,0.053,0.7793,0.0080,140.004,45.000,34113.23846,1.89745,400.120,32.681,45.068,45.000,0.00,0.10,-272.73,-272.78,-6,982,-4,22.7,21.6,-0.4,22.4,22.0,-0.3,5.73,1.91,-1.0,26.9
2015-06-27 00:50:00,0.0,1.88295,0.00067,396.528,0.083,0.7519,0.0136,139.999,45.000,34109.29809,1.89719,400.202,32.674,45.068,45.000,0.00,0.10,-272.72,-272.78,-6,982,-4,22.7,20.8,-0.9,22.4,21.6,-0.6,5.73,1.91,-1.0,26.9
2015-06-27 00:51:00,0.0,1.88279,0.00046,396.524,0.059,0.7437,0.0075,139.998,45.000,34111.51639,1.89690,400.152,32.650,45.068,45.000,0.00,0.10,-272.72,-272.78,-6,982,-4,22.7,20.6,-1.0,22.4,21.1,-0.9,5.73,1.91,-0.9,26.9
2015-06-27 00:52:00,0.0,1.88293,0.00038,396.586,0.040,0.7414,0.0063,140.001,45.000,34113.56131,1.89697,400.207,32.634,45.068,45.000,0.00,0.10,-272.72,-272.79,-6,982,-4,22.7,20.5,-1.1,22.5,21.1,-0.9,5.73,1.91,-1.0,26.9
2015-06-27 00:53:00,0.0,1.88273,0.00026,396.613,0.039,0.7421,0.0039,140.000,45.000,34113.90172,1.89681,400.237,32.627,45.069,45.000,0.00,0.10,-272.72,-272.78,-6,982,-4,22.7,20.5,-1.1,22.4,21.1,-0.9,5.73,1.91,-1.0,26.9
2015-06-27 00:54:00,0.0,1.88284,0.00037,396.526,0.078,0.7455,0.0056,139.996,45.000,34112.09807,1.89699,400.165,32.625,45.069,45.000,0.00,0.10,-272.71,-272.78,-6,982,-4,22.7,20.6,-1.0,22.5,21.2,-0.9,5.73,1.90,-1.0,26.9
2015-06-27 00:55:00,0.0,1.88271,0.00053,396.606,0.044,0.7437,0.0032,139.993,45.000,34113.62957,1.89683,400.237,32.627,45.069,45.000,0.00,0.10,-272.73,-272.78,-6,982,-4,22.7,20.6,-1.1,22.4,21.2,-0.9,5.73,1.91,-1.0,26.8
2015-06-27 00:56:00,0.0,1.88288,0.00049,396.553,0.086,0.7395,0.0059,139.996,45.000,34113.28785,1.89691,400.164,32.625,45.069,45.000,0.00,0.10,-272.72,-272.78,-6,982,-4,22.7,20.5,-1.1,22.4,21.0,-1.0,5.73,1.91,-1.0,26.9
2015-06-27 00:57:00,0.0,1.88271,0.00055,396.588,0.053,0.7525,0.0106,139.995,45.000,34111.22930,1.89697,400.261,32.627,45.068,45.000,0.00,0.10,-272.72,-272.78,-6,982,-4,22.7,20.7,-1.0,22.4,21.4,-0.7,5.73,1.90,-0.9,26.9
2015-06-27 00:58:00,0.0,1.88327,0.00036,396.666,0.057,0.7302,0.0041,139.998,45.000,34111.64247,1.89711,400.232,32.626,45.068,45.000,0.00,0.10,-272.72,-272.79,-6,982,-4,22.7,20.2,-1.3,22.4,20.8,-1.1,5.73,1.91,-1.0,26.8
2015-06-27 00:59:00,0.0,1.88291,0.00048,396.504,0.041,0.7490,0.0102,140.004,45.000,34112.46970,1.89713,400.158,32.625,45.068,45.000,0.00,0.10,-272.72,-272.79,-6,982,-4,22.7,20.7,-1.0,22.4,21.1,-0.9,5.73,1.91,-1.0,26.9
2015-06-27 01:00:00,0.0,1.88251,0.00048,396.462,0.069,0.7614,0.0037,140.001,45.000,34111.29816,1.89699,400.179,32.631,45.068,45.000,0.00,0.10,-272.72,-272.78,-6,982,-4,22.7,21.1,-0.7,22.4,21.6,-0.6,5.73,1.91,-1.0,26.8
2015-06-27 01:01:00,0.0,1.88256,0.00043,396.574,0.029,0.7468,0.0081,140.000,45.000,34111.84447,1.89668,400.220,32.632,45.068,45.000,0.00,0.10,-272.72,-272.78,-6,982,-4,22.7,20.6,-1.0,22.4,21.3,-0.8,5.73,1.90,-1.0,26.9
2015-06-27 01:02:00,0.0,1.88265,0.00038,396.631,0.056,0.7438,0.0053,140.000,45.000,34110.44108,1.89678,400.263,32.640,45.068,45.000,0.00,0.10,-272.73,-272.78,-6,982,-4,22.7,20.6,-1.1,22.4,21.2,-0.9,5.73,1.90,-1.0,26.8
2015-06-27 01:03:00,0.0,1.88275,0.00034,396.652,0.033,0.7440,0.0037,140.000,45.000,34110.24636,1.89684,400.285,32.648,45.068,45.000,0.00,0.10,-272.72,-272.78,-6,982,-4,22.7,20.6,-1.1,22.4,21.1,-0.9,5.73,1.90,-1.0,26.9
2015-06-27 01:04:00,0.0,1.88279,0.00045,396.618,0.045,0.7476,0.0046,140.001,45.000,34109.24544,1.89699,400.266,32.628,45.068,45.000,0.00,0.10,-272.72,-272.78,-6,982,-4,22.7,20.7,-1.0,22.4,21.2,-0.8,5.73,1.90,-1.0,26.9
2015-06-27 01:05:00,0.0,1.88261,0.00037,396.683,0.034,0.7393,0.0038,140.000,45.000,34108.46346,1.89663,400.294,32.626,45.068,45.000,0.00,0.10,-272.72,-272.78,-6,982,-4,22.7,20.4,-1.1,22.4,21.1,-0.9,5.73,1.90,-1.0,26.8
2015-06-27 01:06:00,0.0,1.88262,0.00037,396.684,0.034,0.7361,0.0019,139.997,45.000,34107.30739,1.89657,400.280,32.634,45.068,45.000,0.00,0.10,-272.72,-272.78,-6,982,-4,22.7,20.3,-1.2,22.4,20.9,-1.0,5.73,1.90,-1.0,26.9
2015-06-27 01:07:00,0.0,1.88229,0.00034,396.617,0.045,0.7407,0.0028,139.999,45.000,34109.04140,1.89634,400.234,32.630,45.068,45.000,0.00,0.10,-272.72,-272.78,-6,982,-4,22.7,20.5,-1.1,22.4,21.1,-1.0,5.73,1.91,-1.0,26.8
2015-06-27 01:08:00,0.0,1.88223,0.00047,396.584,0.049,0.7432,0.0026,140.000,45.000,34112.45265,1.89632,400.211,32.629,45.068,45.000,0.00,0.10,-272.72,-272.78,-6,982,-4,22.7,20.6,-1.1,22.4,21.1,-0.9,5.73,1.91,-1.0,26.8
2015-06-27 01:09:00,0.0,1.88240,0.00030,396.549,0.043,0.7475,0.0030,140.002,45.000,34112.06810,1.89658,400.200,32.629,45.068,45.000,0.00,0.10,-272.73,-272.79,-6,982,-4,22.7,20.7,-1.0,22.4,21.3,-0.8,5.73,1.90,-1.0,26.9
2015-06-27 01:10:00,0.0,1.88225,0.00046,396.579,0.030,0.7450,0.0028,140.002,45.000,34113.73855,1.89638,400.215,32.625,45.068,45.000,0.00,0.10,-272.72,-272.78,-6,982,-4,22.7,20.7,-1.0,22.4,21.2,-0.9,5.73,1.90,-1.0,26.8
2015-06-27 01:11:00,0.0,1.88244,0.00045,396.635,0.034,0.7398,0.0043,140.001,45.000,34113.83703,1.89648,400.247,32.627,45.068,45.000,0.00,0.10,-272.72,-272.78,-6,982,-4,22.7,20.5,-1.1,22.4,21.1,-0.9,5.73,1.91,-1.0,26.8
2015-06-27 01:12:00,0.0,1.88204,0.00044,396.429,0.071,0.7543,0.0112,139.998,45.000,34114.44962,1.89633,400.115,32.625,45.068,45.000,0.00,0.10,-272.72,-272.79,-6,983,-4,22.7,21.0,-0.8,22.4,21.3,-0.8,5.73,1.90,-1.0,26.9
2015-06-27 01:13:00,0.0,1.88183,0.00051,396.404,0.043,0.7663,0.0035,140.001,45.000,34115.13985,1.89638,400.144,32.625,45.068,45.000,0.00,0.10,-272.72,-272.78,-6,982,-4,22.7,21.3,-0.6,22.4,21.8,-0.5,5.73,1.90,-1.0,26.8
2015-06-27 01:14:00,0.0,1.88176,0.00057,396.260,0.071,0.7732,0.0097,140.000,45.000,34113.45685,1.89644,400.035,32.626,45.068,45.000,0.00,0.10,-272.72,-272.78,-6,982,-4,22.7,21.5,-0.5,22.4,21.9,-0.4,5.73,1.90,-1.0,26.9
2015-06-27 01:15:00,0.0,1.88153,0.00045,396.339,0.088,0.7698,0.0050,140.002,45.000,34114.62988,1.89613,400.096,32.625,45.068,45.000,0.00,0.10,-272.73,-272.78,-6,982,-4,22.7,21.4,-0.5,22.4,22.0,-0.3,5.73,1.90,-1.0,26.9
2015-06-27 01:16:00,0.0,1.88174,0.00046,396.457,0.056,0.7632,0.0074,140.002,45.000,34114.07934,1.89620,400.186,32.657,45.068,45.000,0.00,0.10,-272.73,-272.79,-6,982,-4,22.7,21.1,-0.7,22.4,21.8,-0.5,5.73,1.90,-1.0,26.9
2015-06-27 01:17:00,0.0,1.88201,0.00041,396.525,0.071,0.7552,0.0046,140.003,45.000,34113.72905,1.89633,400.212,32.666,45.068,45.000,0.00,0.10,-272.72,-272.78,-6,982,-4,22.7,20.9,-0.8,22.4,21.5,-0.7,5.73,1.90,-1.0,26.9
2015-06-27 01:18:00,0.0,1.88201,0.00042,396.567,0.043,0.7461,0.0036,140.003,45.000,34112.81944,1.89616,400.212,32.653,45.068,45.000,0.00,0.10,-272.73,-272.78,-6,982,-4,22.7,20.7,-1.0,22.4,21.3,-0.8,5.73,1.90,-1.0,26.8
2015-06-27 01:19:00,0.0,1.88201,0.00036,396.472,0.072,0.7565,0.0056,140.005,45.000,34113.27588,1.89635,400.164,32.632,45.068,45.000,0.00,0.10,-272.72,-272.78,-6,982,-4,22.7,21.0,-0.8,22.4,21.5,-0.7,5.73,1.90,-1.0,26.8
2015-06-27 01:20:00,0.0,1.88160,0.00040,396.456,0.038,0.7663,0.0039,140.001,45.000,34113.93149,1.89615,400.198,32.628,45.068,45.000,0.00,0.10,-272.72,-272.77,-6,982,-4,22.7,21.3,-0.6,22.4,21.8,-0.5,5.73,1.91,-1.0,26.8
2015-06-27 01:21:00,0.0,1.88140,0.00036,396.433,0.075,0.7639,0.0059,140.001,45.000,34113.15082,1.89592,400.167,32.624,45.068,45.000,0.00,0.10,-272.72,-272.78,-6,982,-4,22.7,21.2,-0.7,22.4,21.7,-0.5,5.73,1.92,-1.0,26.8
2015-06-27 01:22:00,0.0,1.88079,0.00051,396.168,0.066,0.7978,0.0169,140.001,45.000,34113.79883,1.89593,400.060,32.612,45.068,45.000,0.00,0.10,-272.72,-272.79,-6,982,-4,22.6,22.3,0.0,22.4,22.5,-0.0,5.73,1.91,-1.0,26.8
2015-06-27 01:23:00,0.0,1.88088,0.00054,396.445,0.125,0.7795,0.0259,140.002,45.000,34114.05236,1.89569,400.257,32.574,45.069,45.000,0.00,0.10,-272.72,-272.79,-6,982,-4,22.6,21.5,-0.5,22.4,22.5,-0.1,5.73,1.90,-1.0,26.8
2015-06-27 01:24:00,0.0,1.88177,0.00047,396.609,0.076,0.7413,0.0039,140.003,45.000,34114.02292,1.89576,400.231,32.565,45.069,45.000,0.00,0.10,-272.71,-272.79,-6,982,-4,22.6,20.5,-1.1,22.4,21.2,-0.9,5.73,1.91,-1.0,26.8
2015-06-27 01:25:00,0.0,1.88133,0.00056,396.219,0.139,0.7762,0.0215,140.001,45.000,34113.45358,1.89606,400.007,32.558,45.069,45.000,0.00,0.10,-272.72,-272.79,-6,982,-4,22.6,21.7,-0.4,22.4,21.9,-0.4,5.73,1.90,-1.0,26.8
2015-06-27 01:26:00,0.0,1.88064,0.00037,396.244,0.121,0.8041,0.0124,140.002,45.000,34112.44833,1.89596,400.172,32.558,45.069,45.001,0.00,0.10,-272.72,-272.79,-6,982,-4,22.6,22.2,-0.1,22.4,22.9,0.2,5.73,1.90,-0.9,26.8
2015-06-27 01:27:00,0.0,1.88166,0.00050,396.586,0.089,0.7458,0.0105,140.000,45.000,34111.75740,1.89576,400.230,32.554,45.069,45.001,0.00,0.10,-272.72,-272.78,-6,982,-4,22.6,20.7,-1.0,22.4,21.6,-0.6,5.73,1.91,-0.9,26.8
2015-06-27 01:28:00,0.0,1.88188,0.00043,396.421,0.154,0.7485,0.0118,140.003,45.000,34112.25602,1.89609,400.080,32.552,45.069,45.000,0.00,0.10,-272.73,-272.78,-6,983,-4,22.6,20.8,-0.9,22.4,21.2,-0.9,5.73,1.91,-1.0,26.8
2015-06-27 01:29:00,0.0,1.88070,0.00049,396.284,0.078,0.7806,0.0134,139.997,45.000,34113.20086,1.89552,400.093,32.563,45.069,45.000,0.00,0.10,-272.73,-272.79,-6,983,-4,22.6,21.6,-0.4,22.4,22.2,-0.2,5.73,1.91,-1.0,26.8
2015-06-27 01:30:00,0.0,1.88114,0.00049,396.402,0.043,0.7628,0.0062,139.999,45.000,34111.84943,1.89562,400.123,32.558,45.069,45.000,0.00,0.10,-272.72,-272.78,-6,982,-4,22.6,21.2,-0.7,22.4,21.7,-0.5,5.73,1.91,-0.9,26.8
2015-06-27 01:31:00,0.0,1.88118,0.00043,396.395,0.038,0.7590,0.0051,139.997,45.000,34111.85478,1.89554,400.105,32.560,45.068,45.000,0.00,0.10,-272.72,-272.78,-6,982,-4,22.7,21.1,-0.8,22.4,21.7,-0.6,5.73,1.91,-1.0,26.8
2015-06-27 01:32:00,0.0,1.88140,0.00038,396.506,0.068,0.7493,0.0130,139.999,45.000,34111.72374,1.89559,400.165,32.565,45.068,45.000,0.00,0.10,-272.73,-272.78,-6,982,-4,22.6,20.7,-1.0,22.4,21.5,-0.7,5.73,1.91,-1.0,26.8
2015-06-27 01:33:00,0.0,1.88131,0.00053,396.403,0.086,0.7470,0.0089,140.000,45.000,34111.47388,1.89548,400.050,32.566,45.068,45.000,0.00,0.10,-272.72,-272.78,-6,982,-4,22.6,20.8,-0.9,22.4,21.2,-0.9,5.73,1.90,-1.0,26.8
2015-06-27 01:34:00,0.0,1.88109,0.00039,396.335,0.085,0.7710,0.0053,140.000,45.000,34112.36034,1.89572,400.094,32.570,45.068,45.000,0.00,0.10,-272.72,-272.78,-6,982,-4,22.7,21.4,-0.5,22.4,21.9,-0.4,5.73,1.91,-1.0,26.8
2015-06-27 01:35:00,0.0,1.88128,0.00052,396.480,0.063,0.7417,0.0072,140.000,45.000,34113.31274,1.89532,400.107,32.566,45.068,45.000,0.00,0.10,-272.73,-272.78,-6,982,-4,22.6,20.6,-1.1,22.4,21.3,-0.8,5.73,1.91,-0.9,26.8
2015-06-27 01:36:00,0.0,1.88104,0.00035,396.327,0.055,0.7631,0.0060,140.001,45.000,34111.95406,1.89552,400.051,32.579,45.068,45.000,0.00,0.10,-272.72,-272.79,-6,982,-4,22.6,21.2,-0.7,22.4,21.6,-0.6,5.73,1.91,-0.9,26.7
2015-06-27 01:37:00,0.0,1.88087,0.00048,396.143,0.092,0.7764,0.0098,140.004,45.000,34115.20339,1.89562,399.934,32.620,45.068,45.000,0.00,0.10,-272.72,-272.78,-6,982,-4,22.7,21.7,-0.3,22.4,22.1,-0.3,5.73,1.91,-1.0,26.8
2015-06-27 01:38:00,0.0,1.88037,0.00040,396.179,0.098,0.7958,0.0189,140.002,45.000,34112.99982,1.89546,400.067,32.625,45.068,45.000,0.00,0.10,-272.72,-272.78,-6,982,-4,22.7,22.0,-0.1,22.4,22.7,0.1,5.73,1.91,-1.0,26.8
2015-06-27 01:39:00,0.0,1.88071,0.00047,396.396,0.086,0.7631,0.0086,139.999,45.000,34113.12335,1.89521,400.120,32.624,45.068,45.000,0.00,0.10,-272.72,-272.79,-6,982,-4,22.7,21.1,-0.7,22.4,21.9,-0.4,5.73,1.91,-0.9,26.9
2015-06-27 01:40:00,0.0,1.88109,0.00046,396.583,0.062,0.7360,0.0071,139.999,45.000,34113.98009,1.89497,400.175,32.631,45.068,45.000,0.00,0.10,-272.72,-272.78,-6,982,-4,22.6,20.3,-1.2,22.4,21.1,-1.0,5.73,1.91,-0.9,26.8
2015-06-27 01:41:00,0.0,1.88162,0.00038,396.681,0.033,0.7174,0.0027,140.000,45.000,34111.98514,1.89520,400.182,32.653,45.068,45.000,0.00,0.10,-272.72,-272.78,-6,982,-4,22.6,19.8,-1.6,22.4,20.5,-1.3,5.73,1.91,-0.9,26.8
2015-06-27 01:42:00,0.0,1.88133,0.00039,396.588,0.069,0.7262,0.0089,140.001,45.000,34112.61047,1.89515,400.132,32.666,45.068,45.000,0.00,0.10,-272.73,-272.78,-6,982,-4,22.7,20.1,-1.4,22.4,20.6,-1.3,5.73,1.90,-0.9,26.8
2015-06-27 01:43:00,0.0,1.88083,0.00052,396.313,0.155,0.7493,0.0112,140.001,45.000,34114.52512,1.89499,399.971,32.676,45.068,45.000,0.00,0.10,-272.73,-272.78,-6,982,-4,22.6,20.9,-0.9,22.4,21.2,-0.9,5.73,1.91,-0.9,26.8
2015-06-27 01:44:00,0.0,1.88014,0.00033,396.177,0.075,0.7815,0.0079,140.003,45.000,34115.65222,1.89497,399.990,32.679,45.068,45.000,0.00,0.10,-272.72,-272.78,-6,982,-4,22.6,21.7,-0.3,22.4,22.2,-0.2,5.73,1.91,-0.9,26.9
2015-06-27 01:45:00,0.0,1.88063,0.00064,396.397,0.064,0.7636,0.0136,140.005,45.000,34113.74035,1.89510,400.126,32.677,45.068,45.000,0.00,0.10,-272.72,-272.78,-6,982,-4,22.7,21.1,-0.7,22.4,21.9,-0.4,5.73,1.91,-0.9,26.9
2015-06-27 01:46:00,0.0,1.88117,0.00049,396.484,0.060,0.7369,0.0104,140.000,45.000,34115.50969,1.89516,400.082,32.688,45.068,45.000,0.00,0.10,-272.73,-272.78,-6,982,-4,22.7,20.4,-1.2,22.4,21.1,-1.0,5.73,1.91,-0.9,26.8